[[{"header":{"parameterUnit":"m.s-1","parameterCategory":2,"la1":30.2991,"la2":30.254,"lo1":-89.0895,"lo2":-89.0444,"dy":0.0017,"dx":0.0017,"nx":28,"ny":28,"refTime":"2024-11-27T09:00:00:Z","depth":"0","parameterNumber":2,"parameterNumberName":"U-component_of_CURRENTS"},"data":[0,0,0,0,0,0,0,0,0,0,0,0,0,0,0,0,0,0,0,0,0,0,0,0,0,0,0,0,0,0,0,0,0,0,0,0,0,0,0,0,0,0,0,0,0,0,0,0,0,0,0,0,0,0,0,0,0,0,0.1481,0.1481,0,0.1463,0.1462,0.1462,0.1446,0.1446,0.1446,0.1446,0.1455,0.1455,0.1456,0,0,0,0,0,0,0,0,0,0,0,0,0,0.1484,0.1484,0.1481,0.1481,0.1481,0.1463,0.1462,0.1462,0.1446,0.1446,0.1446,0.1445,0.1455,0.1455,0.1456,0,0,0,0,0,0,0,0,0,0,0,0,0,0.1475,0.1484,0.1481,0.1471,0.147,0.1463,0.1462,0.1462,0.1446,0.1446,0.1446,0.1445,0.1455,0.1455,0.1456,0.1463,0,0,0.1457,0.1458,0,0,0,0,0,0,0,0,0.1476,0.1475,0.1473,0.1472,0.1471,0.1457,0.1467,0.1464,0.1446,0.1454,0.1446,0.1445,0.1459,0.1459,0.1454,0.1463,0.1463,0.1457,0.1458,0.1458,0.1458,0,0,0,0,0,0,0,0.1476,0.1476,0.1473,0.1473,0.1471,0.1461,0.146,0.1466,0.1458,0.1454,0.1453,0.1452,0.1458,0.1454,0.1455,0.1464,0.1457,0.1458,0.1458,0.1458,0.1496,0.1497,0,0,0,0,0,0,0.1481,0.1476,0.1474,0.1473,0.1474,0.1461,0.146,0.1461,0.1457,0.1456,0.1452,0.1451,0.1453,0.1454,0.1455,0.1469,0.1458,0.1458,0.1459,0.1496,0.1497,0.1497,0,0,0,0,0,0,0.1482,0.1481,0.1475,0.1474,0.1473,0.1462,0.1463,0.1461,0.1456,0.1456,0.1455,0.145,0.1453,0.1454,0.1464,0.1469,0.1459,0.1459,0.1495,0.1496,0.1497,0.1493,0,0,0,0,0,0,0.1482,0.1482,0.1482,0.1475,0.1473,0.1468,0.1463,0.1461,0.1456,0.1455,0.1454,0.1454,0.1453,0.1463,0.1464,0.147,0.146,0.1494,0.1495,0.1497,0.1492,0.1494,0.1495,0,0,0,0,0,0.1482,0.1481,0.1483,0.1482,0.1475,0.1468,0.1466,0.1457,0.1456,0.1453,0.1457,0.1454,0.1472,0.1464,0.1465,0.1471,0.1493,0.1495,0.1496,0.1492,0.1494,0.1495,0,0,0,0,0,0,0.1475,0.1479,0.1481,0.1479,0.1475,0.1466,0.1461,0.1459,0.1458,0.1459,0.146,0.1461,0.1474,0.1476,0.1466,0.1488,0.1484,0.1486,0.148,0.1481,0.1483,0.1479,0.146,0,0,0,0,0,0.1477,0.1481,0.148,0.1478,0.1477,0.1471,0.1468,0.1463,0.1462,0.1461,0.146,0.1468,0.1482,0.1483,0.1493,0.15,0.1527,0.1507,0.1509,0.151,0.1509,0.1568,0.1575,0.1502,0.1502,0.1502,0,0,0.147,0.1476,0.1475,0.1477,0.1473,0.1467,0.1468,0.1462,0.1457,0.1464,0.1458,0.1474,0.1487,0.1497,0.1503,0.1497,0.1545,0.1512,0.1512,0.1511,0.157,0.1578,0.1584,0.1503,0.1503,0.1503,0,0,0.1459,0.1467,0.1467,0.1466,0.1466,0.1463,0.1463,0.1457,0.1456,0.1456,0.1467,0.1487,0.1492,0.1506,0.1515,0.1532,0.1554,0.1536,0.1533,0.159,0.1597,0.1603,0.1644,0.1654,0.1532,0.1532,0.1532,0,0.1447,0.1452,0.1463,0.1462,0.1458,0.1462,0.1454,0.1453,0.145,0.1458,0.1453,0.1492,0.1497,0.1528,0.1528,0.1534,0.1568,0.1523,0.1592,0.1599,0.1605,0.1646,0.1657,0.1532,0.1532,0.1532,0.1532,0,0.1439,0.1439,0.1438,0.144,0.1438,0.1432,0.1435,0.1437,0.1439,0.1445,0.1475,0.1493,0.1519,0.1525,0.1526,0.1574,0.1584,0.1592,0.1586,0.1612,0.1654,0.1665,0.1532,0.1532,0.1532,0.1532,0,0,0.1407,0.1428,0.1424,0.142,0.1427,0.1418,0.1424,0.143,0.1436,0.1452,0.1471,0.1499,0.1523,0.1536,0.1555,0.1591,0.1656,0.1604,0.1607,0.1641,0.178,0.178,0.1792,0.1682,0.1684,0.1685,0.1791,0,0.139,0.1386,0.1404,0.1385,0.1377,0.1393,0.1395,0.1406,0.1423,0.1443,0.1487,0.1513,0.1525,0.1543,0.1587,0.1641,0.1686,0.1626,0.1753,0.1757,0.1751,0.1805,0.1769,0.186,0.1802,0.1804,0.1806,0,0.1369,0.1369,0.1357,0.1358,0.1357,0.1351,0.1361,0.1365,0.141,0.1428,0.148,0.1517,0.1581,0.1584,0.1706,0.167,0.1726,0.1765,0.177,0.1778,0.1777,0.1827,0.1883,0.1777,0.1823,0.1822,0.1821,0,0.1328,0.133,0.132,0.1317,0.1324,0.1325,0.1331,0.1362,0.1373,0.1429,0.1454,0.1539,0.1583,0.1675,0.1761,0.1743,0.1893,0.1881,0.1936,0.1936,0.1933,0.193,0.1899,0.1976,0.1975,0.1975,0.1975,0,0.1294,0.1279,0.13,0.1286,0.1275,0.1292,0.1292,0.1314,0.1357,0.1379,0.1449,0.1493,0.161,0.1707,0.1782,0.1902,0.1923,0.195,0.1973,0.193,0.1925,0.1854,0.1779,0.1979,0.1978,0.1977,0.1977,0,0.1244,0.1256,0.1242,0.1252,0.1254,0.1244,0.1265,0.1272,0.1316,0.1353,0.1377,0.1478,0.1603,0.1723,0.187,0.1927,0.197,0.2072,0.2006,0.2018,0.1949,0.1875,0.18,0.1769,0.2148,0.2149,0.215,0,0.1223,0.1212,0.1215,0.1207,0.121,0.1207,0.1209,0.1247,0.1264,0.1343,0.1364,0.1489,0.1572,0.179,0.1936,0.2094,0.199,0.2127,0.2082,0.195,0.1885,0.1754,0.1724,0.2079,0.2079,0.2079,0.2079,0,0.1183,0.1186,0.1173,0.1164,0.1159,0.1157,0.1169,0.1178,0.1229,0.127,0.1341,0.1411,0.1625,0.1767,0.197,0.2068,0.1982,0.213,0.2023,0.1852,0.1681,0.166,0.1986,0.2079,0.2079,0.2079,0.2079,0.2079,0.1158,0.1143,0.1133,0.1119,0.1112,0.1109,0.11,0.1129,0.1155,0.1206,0.129,0.1378,0.157,0.1854,0.196,0.2052,0.1987,0.1998,0.193,0.1817,0.1741,0.2056,0.2152,0.2152,0.2152,0.2153,0.2153,0,0.1125,0.1109,0.1093,0.1071,0.1048,0.1063,0.107,0.1063,0.1084,0.1151,0.1208,0.1369,0.1519,0.1702,0.1867,0.1835,0.1802,0.1769,0.1569,0.1564,0.1889,0.184,0.1836,0.1836,0.1836,0.1836,0.1836,0.1836,0.1105,0.1072,0.1061,0.1013,0.0999,0.0971,0.0968,0.0973,0.1008,0.1061,0.1132,0.1211,0.1345,0.1425,0.1482,0.1516,0.139,0.1329,0.1297,0.1499,0.1514,0.1528,0.1464,0.1381,0.1381,0.0955,0.0951,0.0948]},{"header":{"parameterUnit":"m.s-1","parameterCategory":2,"la1":30.2991,"la2":30.254,"lo1":-89.0895,"lo2":-89.0444,"dy":0.0017,"dx":0.0017,"nx":28,"ny":28,"refTime":"2024-11-27T09:00:00:Z","depth":"0","parameterNumber":3,"parameterNumberName":"V-component_of_CURRENTS"},"data":[0,0,0,0,0,0,0,0,0,0,0,0,0,0,0,0,0,0,0,0,0,0,0,0,0,0,0,0,0,0,0,0,0,0,0,0,0,0,0,0,0,0,0,0,0,0,0,0,0,0,0,0,0,0,0,0,0,0,0.0303,0.0303,0,0.0283,0.0283,0.0282,0.0281,0.0281,0.0281,0.0281,0.0189,0.0186,0.0184,0,0,0,0,0,0,0,0,0,0,0,0,0,0.0325,0.0325,0.0303,0.0303,0.0303,0.0283,0.0283,0.0282,0.0281,0.0281,0.0281,0.0282,0.019,0.0187,0.0183,0,0,0,0,0,0,0,0,0,0,0,0,0,0.0311,0.0325,0.0303,0.03,0.0299,0.0283,0.0283,0.0282,0.0281,0.0281,0.0281,0.0282,0.0191,0.0187,0.0183,0.0152,0,0,0.0171,0.0169,0,0,0,0,0,0,0,0,0.0312,0.031,0.0301,0.03,0.0299,0.0285,0.0256,0.0235,0.0281,0.0288,0.0281,0.0282,0.0214,0.0208,0.0205,0.0147,0.0143,0.017,0.0168,0.0166,0.0165,0,0,0,0,0,0,0,0.0313,0.0311,0.0295,0.03,0.0299,0.0293,0.0292,0.0253,0.0248,0.0287,0.0287,0.0285,0.0213,0.0209,0.0202,0.0142,0.017,0.0167,0.0164,0.0163,0.0045,0.0045,0,0,0,0,0,0,0.0316,0.0312,0.0296,0.0295,0.0307,0.0293,0.0291,0.0289,0.025,0.0245,0.0284,0.0285,0.0215,0.0207,0.0199,0.0163,0.0166,0.0162,0.016,0.0046,0.0045,0.0044,0,0,0,0,0,0,0.0316,0.0315,0.0297,0.0303,0.03,0.0292,0.029,0.0289,0.0283,0.0249,0.0242,0.0281,0.0215,0.0204,0.0167,0.0159,0.0161,0.0157,0.0047,0.0046,0.0045,0.0089,0,0,0,0,0,0,0.0317,0.0315,0.0314,0.0303,0.03,0.0285,0.0289,0.0288,0.0281,0.0282,0.0243,0.0235,0.0215,0.0173,0.0163,0.0154,0.0154,0.0048,0.0046,0.0045,0.0089,0.009,0.0091,0,0,0,0,0,0.0318,0.0312,0.0314,0.0312,0.0299,0.0285,0.0282,0.0278,0.0281,0.0275,0.0254,0.0236,0.0157,0.017,0.0158,0.0147,0.0048,0.0047,0.0045,0.0088,0.0089,0.0091,0,0,0,0,0,0,0.0321,0.0311,0.0313,0.0305,0.0296,0.0284,0.0277,0.0276,0.0257,0.0255,0.0228,0.0218,0.0183,0.0154,0.0168,0.0108,0.0099,0.0095,0.0135,0.0136,0.0137,0.0157,0.0151,0,0,0,0,0,0.0322,0.0315,0.0306,0.03,0.0294,0.0287,0.0281,0.0278,0.026,0.0253,0.0229,0.0196,0.0166,0.0144,0.0112,0.0075,0.0065,0.0058,0.0059,0.0061,0.0067,0.0052,0.0054,0.0039,0.0039,0.0039,0,0,0.0322,0.0315,0.0312,0.03,0.0292,0.0281,0.0283,0.0272,0.0266,0.0242,0.0221,0.0198,0.0157,0.0126,0.0106,0.01,0.0058,0.0059,0.006,0.0066,0.0051,0.0053,0.0054,0.0038,0.0038,0.0038,0,0,0.0311,0.0312,0.0299,0.0292,0.0279,0.0276,0.0273,0.026,0.0257,0.0234,0.022,0.0199,0.0142,0.0125,0.0105,0.0087,0.0067,0.0067,0.0085,0.007,0.0072,0.0074,0.0065,0.0066,0.0064,0.0064,0.0064,0,0.0312,0.0298,0.0293,0.0278,0.0276,0.0273,0.0263,0.0256,0.0235,0.0236,0.0228,0.018,0.0145,0.0121,0.0117,0.0092,0.0082,0.0088,0.0075,0.0076,0.0077,0.0068,0.0068,0.0066,0.0066,0.0066,0.0066,0,0.0288,0.0281,0.0272,0.0258,0.0255,0.0245,0.024,0.0237,0.0235,0.0233,0.0216,0.0185,0.0162,0.0142,0.0122,0.0108,0.0099,0.0084,0.008,0.0081,0.0071,0.007,0.0069,0.0068,0.0068,0.0067,0,0,0.0279,0.026,0.0257,0.0256,0.0246,0.0243,0.0237,0.0236,0.0246,0.0227,0.0238,0.0191,0.0194,0.0171,0.0149,0.0134,0.0129,0.0113,0.0111,0.012,0.0103,0.0098,0.0096,0.0115,0.0115,0.0115,0.0096,0,0.0262,0.0238,0.0236,0.0228,0.0219,0.0228,0.023,0.0233,0.0237,0.0247,0.0232,0.0225,0.0198,0.0196,0.0178,0.0147,0.0128,0.0136,0.0087,0.0086,0.0093,0.0095,0.0138,0.0125,0.0095,0.0095,0.0094,0,0.0237,0.0228,0.0212,0.0225,0.0224,0.0224,0.0247,0.0249,0.0264,0.0271,0.0274,0.0268,0.0254,0.0228,0.0184,0.0191,0.0149,0.0121,0.0119,0.01,0.0078,0.0115,0.0124,0.0122,0.0093,0.0093,0.0093,0,0.0225,0.0216,0.0208,0.0207,0.0214,0.0223,0.0236,0.0255,0.0271,0.0292,0.0311,0.0298,0.0297,0.0252,0.0201,0.0191,0.0154,0.013,0.0084,0.0084,0.0103,0.0104,0.0119,0.009,0.009,0.009,0.009,0,0.0205,0.0199,0.0204,0.0197,0.0213,0.0223,0.0247,0.0263,0.0294,0.0317,0.0325,0.0342,0.0301,0.028,0.0222,0.0162,0.0169,0.0093,0.0079,0.0118,0.012,0.0105,0.0072,0.0089,0.0089,0.0089,0.009,0,0.018,0.0179,0.0176,0.0191,0.0201,0.0213,0.0254,0.0276,0.0306,0.034,0.035,0.0374,0.0356,0.0312,0.0248,0.019,0.0119,0.01,0.0155,0.0147,0.0096,0.0063,0.0022,0.0004,0.0049,0.0049,0.0049,0,0.0156,0.0151,0.017,0.0181,0.0186,0.0211,0.0233,0.0273,0.0299,0.0355,0.0371,0.0383,0.0394,0.0322,0.0246,0.0166,0.0119,0.0124,0.0103,0.0106,0.0059,0.0034,0.002,0.0147,0.0147,0.0148,0.0148,0,0.0121,0.0132,0.0136,0.0158,0.018,0.0213,0.0246,0.027,0.0319,0.0356,0.0398,0.0418,0.0389,0.0357,0.0266,0.02,0.0125,0.0129,0.0123,0.0129,0.0113,0.0086,0.0147,0.0153,0.0152,0.0152,0.0152,0.0152,0.0097,0.01,0.0112,0.0135,0.0168,0.0206,0.0227,0.0272,0.0318,0.0377,0.0405,0.0449,0.0441,0.0342,0.0264,0.0182,0.0132,0.0149,0.0107,0.0081,0.0071,0.0141,0.0133,0.0132,0.0132,0.0132,0.0131,0,0.0058,0.0071,0.0091,0.0121,0.0151,0.0177,0.023,0.0256,0.0304,0.0375,0.0421,0.0473,0.0448,0.039,0.0295,0.0199,0.0152,0.0149,0.0144,0.0126,0.0197,0.0211,0.0232,0.0232,0.0232,0.0232,0.0232,0.0232,0.0035,0.0036,0.0053,0.0089,0.012,0.0148,0.0174,0.0227,0.0284,0.0371,0.0431,0.0491,0.052,0.0383,0.0274,0.0217,0.0141,0.0118,0.0056,0.0137,0.0135,0.0133,0.0142,0.0148,0.0148,0.0034,0.0033,0.0032]}],[{"header":{"parameterUnit":"m.s-1","parameterCategory":2,"la1":30.2991,"la2":30.254,"lo1":-89.0895,"lo2":-89.0444,"dy":0.0017,"dx":0.0017,"nx":28,"ny":28,"refTime":"2024-11-27T09:00:00:Z","depth":"2","parameterNumber":2,"parameterNumberName":"U-component_of_CURRENTS"},"data":[0,0,0,0,0,0,0,0,0,0,0,0,0,0,0,0,0,0,0,0,0,0,0,0,0,0,0,0,0,0,0,0,0,0,0,0,0,0,0,0,0,0,0,0,0,0,0,0,0,0,0,0,0,0,0,0,0,0,0.1198,0.1198,0,0.1167,0.1166,0.1166,0.118,0.1181,0.1181,0.1182,0.1185,0.1184,0.1184,0,0,0,0,0,0,0,0,0,0,0,0,0,0.1245,0.1244,0.1198,0.1198,0.1197,0.1167,0.1166,0.1166,0.118,0.1181,0.1182,0.1183,0.1185,0.1184,0.1183,0,0,0,0,0,0,0,0,0,0,0,0,0,0.1219,0.1244,0.1198,0.1201,0.1202,0.1167,0.1166,0.1166,0.1179,0.1181,0.1182,0.1183,0.1186,0.1184,0.1183,0.115,0,0,0.118,0.118,0,0,0,0,0,0,0,0,0.1221,0.1217,0.1201,0.1201,0.1201,0.1179,0.1184,0.1163,0.1179,0.1187,0.1182,0.1184,0.1186,0.1185,0.1174,0.1151,0.1151,0.118,0.1179,0.1179,0.1178,0,0,0,0,0,0,0,0.1223,0.1219,0.1185,0.1201,0.1201,0.1196,0.1194,0.118,0.1179,0.1186,0.1187,0.1185,0.1186,0.1175,0.1174,0.1151,0.118,0.1179,0.1178,0.1178,0.1164,0.1164,0,0,0,0,0,0,0.1228,0.122,0.1186,0.1184,0.1216,0.1194,0.1192,0.1184,0.1179,0.1179,0.1184,0.1186,0.1176,0.1176,0.1175,0.1202,0.1179,0.1178,0.1177,0.1164,0.1164,0.1164,0,0,0,0,0,0,0.1229,0.1225,0.1187,0.1203,0.1198,0.1193,0.1183,0.1183,0.1192,0.1177,0.1178,0.1196,0.1177,0.1176,0.118,0.12,0.1177,0.1176,0.1163,0.1164,0.1164,0.1215,0,0,0,0,0,0,0.123,0.1225,0.1227,0.1203,0.1197,0.1176,0.1182,0.1181,0.1188,0.119,0.1187,0.1188,0.1178,0.1182,0.1179,0.1198,0.1175,0.1163,0.1163,0.1164,0.1213,0.1217,0.1221,0,0,0,0,0,0.1232,0.1221,0.1227,0.1223,0.1197,0.1176,0.1173,0.1173,0.1187,0.1187,0.1192,0.1189,0.1184,0.1181,0.1178,0.1197,0.1163,0.1163,0.1164,0.1211,0.1217,0.1221,0,0,0,0,0,0,0.1238,0.122,0.1227,0.1211,0.1203,0.1179,0.1178,0.1181,0.1183,0.1196,0.1188,0.1187,0.1201,0.1186,0.1183,0.1194,0.1174,0.1174,0.1211,0.1216,0.122,0.1226,0.1174,0,0,0,0,0,0.1241,0.1233,0.1217,0.1208,0.1206,0.1198,0.1193,0.1196,0.119,0.1193,0.1195,0.1196,0.1194,0.1197,0.119,0.119,0.1187,0.1201,0.1205,0.1208,0.121,0.1219,0.1224,0.1166,0.1166,0.1166,0,0,0.124,0.1231,0.1226,0.121,0.1205,0.1196,0.1199,0.1197,0.1199,0.1192,0.1206,0.121,0.1197,0.1204,0.1209,0.1199,0.1225,0.1209,0.1212,0.1212,0.122,0.1226,0.1231,0.1167,0.1167,0.1167,0,0,0.1227,0.1229,0.1218,0.1213,0.1211,0.1205,0.121,0.1204,0.1216,0.1222,0.1225,0.1241,0.1234,0.1233,0.123,0.1246,0.1246,0.125,0.1276,0.1285,0.129,0.1295,0.131,0.1315,0.1252,0.1252,0.1252,0,0.1233,0.1211,0.1213,0.1203,0.1199,0.1213,0.1203,0.121,0.1211,0.1221,0.1235,0.1247,0.1245,0.1251,0.1268,0.1257,0.1266,0.1263,0.1292,0.1296,0.13,0.1314,0.1319,0.1255,0.1255,0.1254,0.1254,0,0.1206,0.1199,0.1193,0.1187,0.1186,0.1179,0.119,0.1206,0.123,0.1239,0.1267,0.1273,0.1282,0.1289,0.1288,0.1315,0.1315,0.1298,0.1284,0.1309,0.1322,0.1326,0.1258,0.1258,0.1257,0.1256,0,0,0.1189,0.1177,0.1176,0.1172,0.1179,0.1169,0.1189,0.1198,0.1213,0.1246,0.1263,0.129,0.1316,0.1314,0.1323,0.1339,0.1385,0.1342,0.1341,0.1364,0.1419,0.139,0.1392,0.1382,0.1383,0.1383,0.1423,0,0.117,0.1143,0.1147,0.1134,0.1121,0.1147,0.1157,0.1179,0.1208,0.1232,0.1269,0.1291,0.1318,0.1336,0.1362,0.1374,0.1398,0.1377,0.1385,0.1385,0.1362,0.1397,0.1164,0.1177,0.1427,0.1428,0.1428,0,0.1136,0.1124,0.1102,0.1102,0.1102,0.1106,0.113,0.1145,0.119,0.1217,0.1264,0.1293,0.1341,0.1352,0.1409,0.1399,0.1421,0.1431,0.1432,0.1388,0.1364,0.1189,0.1176,0.1435,0.1435,0.1434,0.1434,0,0.1102,0.1091,0.1072,0.107,0.1076,0.1088,0.1107,0.1145,0.1161,0.1219,0.1238,0.1299,0.1332,0.1374,0.143,0.1422,0.1482,0.1461,0.1454,0.1452,0.1245,0.1224,0.1495,0.1495,0.1495,0.1495,0.1495,0,0.1062,0.1048,0.1059,0.1046,0.1042,0.1067,0.108,0.111,0.1152,0.1172,0.1238,0.1262,0.1343,0.1391,0.1432,0.147,0.1488,0.1468,0.1462,0.1258,0.1238,0.1448,0.1442,0.1496,0.1496,0.1496,0.1495,0,0.1013,0.1018,0.0998,0.1012,0.102,0.1023,0.1059,0.1072,0.1121,0.115,0.1173,0.1245,0.132,0.1392,0.1458,0.1464,0.1499,0.1505,0.1273,0.1239,0.1462,0.1458,0.1491,0.149,0.149,0.1489,0.1489,0,0.0976,0.0959,0.0969,0.097,0.0978,0.0993,0.1007,0.1054,0.1071,0.1134,0.1143,0.1227,0.1276,0.1368,0.1357,0.1407,0.1507,0.1257,0.1196,0.1472,0.1463,0.146,0.1457,0.0942,0.0938,0.0934,0.0931,0,0.0911,0.0924,0.0919,0.0925,0.0937,0.094,0.0969,0.0968,0.1029,0.1059,0.1104,0.1147,0.1191,0.1134,0.1199,0.1193,0.123,0.118,0.1508,0.0993,0.0962,0.0951,0.0964,0.0895,0.0899,0.0901,0.0903,0.0905,0.0876,0.0868,0.088,0.0884,0.0894,0.0899,0.0896,0.0926,0.0946,0.0972,0.1029,0.1009,0.0974,0.0935,0.0956,0.0946,0.103,0.0976,0.0984,0.0998,0.0941,0.0911,0.0825,0.0828,0.0831,0.0833,0.0835,0,0.0845,0.0854,0.0843,0.085,0.0844,0.0875,0.0878,0.0863,0.088,0.0851,0.0887,0.0716,0.0665,0.0686,0.0573,0.0603,0.0565,0.0627,0.0537,0.0568,0.0596,0.0519,0.0291,0.0292,0.0292,0.0292,0,0,0.0833,0.0825,0.0821,0.0805,0.0819,0.0816,0.0818,0.0792,0.0739,0.065,0.0565,0.0575,0.0544,0.0382,0.0373,0.0323,0.0453,0.0302,0.0703,0.0617,0.0646,0.0729,0.0636,0,0,0,0,0]},{"header":{"parameterUnit":"m.s-1","parameterCategory":2,"la1":30.2991,"la2":30.254,"lo1":-89.0895,"lo2":-89.0444,"dy":0.0017,"dx":0.0017,"nx":28,"ny":28,"refTime":"2024-11-27T09:00:00:Z","depth":"2","parameterNumber":3,"parameterNumberName":"V-component_of_CURRENTS"},"data":[0,0,0,0,0,0,0,0,0,0,0,0,0,0,0,0,0,0,0,0,0,0,0,0,0,0,0,0,0,0,0,0,0,0,0,0,0,0,0,0,0,0,0,0,0,0,0,0,0,0,0,0,0,0,0,0,0,0,-0.0128,-0.0128,0,-0.0119,-0.0119,-0.0119,-0.0092,-0.0092,-0.0091,-0.0091,-0.0133,-0.0135,-0.0137,0,0,0,0,0,0,0,0,0,0,0,0,0,-0.0137,-0.0137,-0.0129,-0.0128,-0.0128,-0.0119,-0.0119,-0.0119,-0.0093,-0.0092,-0.0091,-0.009,-0.0133,-0.0135,-0.0137,0,0,0,0,0,0,0,0,0,0,0,0,0,-0.0132,-0.0137,-0.0129,-0.0113,-0.0112,-0.0119,-0.0119,-0.0119,-0.0093,-0.0092,-0.0091,-0.009,-0.0132,-0.0134,-0.0137,-0.0172,0,0,-0.0145,-0.0146,0,0,0,0,0,0,0,0,-0.0132,-0.0131,-0.0116,-0.0114,-0.0113,-0.0105,-0.0138,-0.0139,-0.0093,-0.0101,-0.0091,-0.0089,-0.0129,-0.0132,-0.0132,-0.0174,-0.0176,-0.0145,-0.0147,-0.0148,-0.0149,0,0,0,0,0,0,0,-0.0132,-0.0132,-0.0125,-0.0116,-0.0114,-0.0112,-0.011,-0.0138,-0.0122,-0.01,-0.0098,-0.0096,-0.0129,-0.013,-0.0133,-0.0177,-0.0145,-0.0147,-0.0149,-0.015,-0.0248,-0.0249,0,0,0,0,0,0,-0.0133,-0.0132,-0.0126,-0.0125,-0.0119,-0.0112,-0.011,-0.0109,-0.012,-0.012,-0.0097,-0.0095,-0.0126,-0.013,-0.0135,-0.0154,-0.0148,-0.015,-0.0152,-0.0247,-0.0248,-0.0249,0,0,0,0,0,0,-0.0133,-0.0132,-0.0126,-0.0128,-0.0127,-0.0113,-0.0112,-0.011,-0.0098,-0.0117,-0.0118,-0.0086,-0.0125,-0.0131,-0.0153,-0.0156,-0.0151,-0.0154,-0.0245,-0.0247,-0.0248,-0.0208,0,0,0,0,0,0,-0.0133,-0.0132,-0.0127,-0.0128,-0.0127,-0.0124,-0.0113,-0.011,-0.0099,-0.0096,-0.0109,-0.0113,-0.0125,-0.0149,-0.0156,-0.016,-0.0156,-0.0244,-0.0246,-0.0248,-0.0208,-0.0208,-0.0208,0,0,0,0,0,-0.0134,-0.0133,-0.0127,-0.0125,-0.0121,-0.0124,-0.0124,-0.0111,-0.0099,-0.0096,-0.0106,-0.0111,-0.0167,-0.0152,-0.0159,-0.0164,-0.0243,-0.0246,-0.0248,-0.0208,-0.0208,-0.0208,0,0,0,0,0,0,-0.0131,-0.013,-0.0123,-0.0121,-0.0119,-0.0119,-0.0114,-0.0107,-0.0112,-0.0106,-0.0122,-0.0127,-0.0148,-0.017,-0.0153,-0.0202,-0.0208,-0.0212,-0.0175,-0.0175,-0.0175,-0.0165,-0.0158,0,0,0,0,0,-0.0129,-0.0128,-0.0127,-0.0123,-0.0122,-0.0116,-0.0113,-0.0105,-0.0111,-0.011,-0.0119,-0.014,-0.0167,-0.0179,-0.0204,-0.0231,-0.0249,-0.0243,-0.0243,-0.0243,-0.0242,-0.0284,-0.0286,-0.0257,-0.0257,-0.0257,0,0,-0.0126,-0.0125,-0.0123,-0.0122,-0.0118,-0.0118,-0.0111,-0.0105,-0.0103,-0.0118,-0.0118,-0.0138,-0.0175,-0.0199,-0.0212,-0.0214,-0.0258,-0.0246,-0.0244,-0.0244,-0.0286,-0.0289,-0.0291,-0.0258,-0.0258,-0.0258,0,0,-0.0127,-0.0119,-0.012,-0.0118,-0.0112,-0.0112,-0.0108,-0.0104,-0.0099,-0.0108,-0.012,-0.0141,-0.0174,-0.02,-0.022,-0.0241,-0.0255,-0.0252,-0.0242,-0.0282,-0.0284,-0.0286,-0.0292,-0.0295,-0.0253,-0.0253,-0.0253,0,-0.0121,-0.0122,-0.012,-0.0121,-0.0114,-0.0108,-0.0105,-0.0107,-0.0109,-0.011,-0.0103,-0.0153,-0.0177,-0.0218,-0.022,-0.0239,-0.0253,-0.0231,-0.0279,-0.0282,-0.0285,-0.0291,-0.0295,-0.0251,-0.0251,-0.0251,-0.0252,0,-0.0129,-0.0121,-0.012,-0.0118,-0.0114,-0.0109,-0.0109,-0.0104,-0.0095,-0.0098,-0.012,-0.0151,-0.0179,-0.0195,-0.021,-0.0248,-0.0247,-0.0269,-0.027,-0.0285,-0.0291,-0.0295,-0.0249,-0.0249,-0.025,-0.025,0,0,-0.0135,-0.0127,-0.0124,-0.0113,-0.0107,-0.0103,-0.0103,-0.0104,-0.0098,-0.0108,-0.0111,-0.0156,-0.0161,-0.0186,-0.0211,-0.0246,-0.0268,-0.026,-0.0263,-0.025,-0.0331,-0.0254,-0.0251,-0.0297,-0.0298,-0.0299,-0.0319,0,-0.0137,-0.013,-0.0129,-0.0113,-0.0106,-0.0097,-0.0095,-0.0094,-0.0093,-0.0096,-0.0131,-0.0145,-0.0163,-0.0169,-0.0207,-0.0255,-0.0283,-0.0259,-0.0334,-0.0336,-0.0252,-0.0256,-0.0251,-0.0262,-0.0323,-0.0324,-0.0325,0,-0.0146,-0.0137,-0.0122,-0.0098,-0.0094,-0.0084,-0.0068,-0.0066,-0.0078,-0.0077,-0.0098,-0.0118,-0.016,-0.0176,-0.0257,-0.0238,-0.0279,-0.0317,-0.0319,-0.0265,-0.0268,-0.0265,-0.0269,-0.0333,-0.0332,-0.0332,-0.0331,0,-0.0145,-0.013,-0.0112,-0.0105,-0.0084,-0.007,-0.0058,-0.0057,-0.005,-0.0061,-0.0055,-0.0109,-0.0121,-0.0194,-0.0243,-0.0258,-0.0325,-0.036,-0.0329,-0.0323,-0.0343,-0.0336,-0.0424,-0.0424,-0.0424,-0.0424,-0.0424,0,-0.0146,-0.0128,-0.0106,-0.0093,-0.0064,-0.0055,-0.003,-0.0024,-0.0022,-0.0009,-0.004,-0.004,-0.0128,-0.0167,-0.0235,-0.027,-0.0316,-0.0319,-0.0326,-0.0325,-0.0317,-0.0406,-0.0404,-0.0425,-0.0425,-0.0425,-0.0424,0,-0.0134,-0.0127,-0.0099,-0.0071,-0.0059,-0.0033,-0.0,0.0015,0.0017,0.0032,0.0033,0.0008,-0.0021,-0.0093,-0.0193,-0.0234,-0.0298,-0.0303,-0.0267,-0.0268,-0.0275,-0.027,-0.0283,-0.0281,-0.0279,-0.0277,-0.0276,0,-0.012,-0.0107,-0.0073,-0.005,-0.0029,0.0005,0.0029,0.0038,0.0056,0.0067,0.0077,0.0065,0.0083,-0.0001,-0.0079,-0.0152,-0.0221,-0.0211,-0.0241,-0.0256,-0.0262,-0.0261,-0.026,-0.0256,-0.0254,-0.0253,-0.0252,0,-0.0081,-0.0071,-0.0046,-0.0008,0.0025,0.0059,0.0094,0.0109,0.0124,0.0154,0.0187,0.0205,0.016,0.0099,0.0025,-0.0036,-0.0195,-0.0183,-0.0239,-0.0269,-0.0225,-0.0232,-0.0233,-0.0241,-0.0242,-0.0243,-0.0243,-0.0244,-0.0038,-0.0013,0.0014,0.0054,0.0083,0.0125,0.0162,0.0202,0.0254,0.032,0.03,0.0313,0.0205,0.0131,0.006,-0.0036,-0.0052,-0.0143,-0.015,-0.0158,-0.0128,-0.008,-0.0062,-0.0062,-0.0062,-0.0062,-0.0062,0,0.0024,0.0045,0.0079,0.0126,0.0164,0.0165,0.0217,0.0266,0.0354,0.0381,0.0448,0.0325,0.0285,0.0145,0.003,-0.0019,-0.0052,-0.0062,-0.0131,-0.014,-0.0149,-0.0122,-0.0054,-0.0054,-0.0054,-0.0054,0,0,0.0064,0.0109,0.012,0.0197,0.0223,0.0283,0.0316,0.0398,0.042,0.0461,0.043,0.0463,0.0253,0.0155,0.0078,-0.0001,-0.005,0.0001,0.0,-0.0079,-0.0087,-0.0188,-0.0154,0,0,0,0,0]}],[{"header":{"parameterUnit":"m.s-1","parameterCategory":2,"la1":30.2991,"la2":30.254,"lo1":-89.0895,"lo2":-89.0444,"dy":0.0017,"dx":0.0017,"nx":28,"ny":28,"refTime":"2024-11-27T09:00:00:Z","depth":"4","parameterNumber":2,"parameterNumberName":"U-component_of_CURRENTS"},"data":[0,0,0,0,0,0,0,0,0,0,0,0,0,0,0,0,0,0,0,0,0,0,0,0,0,0,0,0,0,0,0,0,0,0,0,0,0,0,0,0,0,0,0,0,0,0,0,0,0,0,0,0,0,0,0,0,0,0,-0.0208,-0.0207,0,-0.0189,-0.0189,-0.0189,-0.0133,-0.0132,-0.013,-0.0129,-0.0133,-0.0135,-0.0136,0,0,0,0,0,0,0,0,0,0,0,0,0,-0.0233,-0.0233,-0.0208,-0.0207,-0.0207,-0.0189,-0.0189,-0.0189,-0.0133,-0.0132,-0.013,-0.0128,-0.0133,-0.0134,-0.0136,0,0,0,0,0,0,0,0,0,0,0,0,0,-0.022,-0.0233,-0.0208,-0.0176,-0.0173,-0.0189,-0.0189,-0.0189,-0.0134,-0.0132,-0.013,-0.0128,-0.0132,-0.0134,-0.0136,-0.019,0,0,-0.0143,-0.0143,0,0,0,0,0,0,0,0,-0.0221,-0.0219,-0.0181,-0.0178,-0.0175,-0.016,-0.0199,-0.019,-0.0134,-0.015,-0.0129,-0.0127,-0.0145,-0.0146,-0.0148,-0.019,-0.019,-0.0143,-0.0144,-0.0145,-0.0145,0,0,0,0,0,0,0,-0.0222,-0.022,-0.0202,-0.0181,-0.0177,-0.0176,-0.0171,-0.0197,-0.0161,-0.0149,-0.0144,-0.0141,-0.0143,-0.0147,-0.0148,-0.019,-0.0143,-0.0144,-0.0146,-0.0147,-0.018,-0.0179,0,0,0,0,0,0,-0.0222,-0.0221,-0.0202,-0.0201,-0.0192,-0.0177,-0.0172,-0.0168,-0.016,-0.0156,-0.0142,-0.0138,-0.0144,-0.0146,-0.0148,-0.0123,-0.0145,-0.0147,-0.0148,-0.018,-0.018,-0.0179,0,0,0,0,0,0,-0.0222,-0.022,-0.0203,-0.0209,-0.0207,-0.0178,-0.0174,-0.0169,-0.0134,-0.0154,-0.0151,-0.0108,-0.0143,-0.0145,-0.0139,-0.0126,-0.0148,-0.015,-0.0181,-0.018,-0.0179,-0.013,0,0,0,0,0,0,-0.0223,-0.0221,-0.021,-0.0209,-0.0206,-0.019,-0.0176,-0.017,-0.0136,-0.013,-0.0126,-0.0125,-0.0141,-0.0136,-0.0141,-0.0129,-0.0151,-0.0181,-0.018,-0.018,-0.0132,-0.0127,-0.0124,0,0,0,0,0,-0.0224,-0.022,-0.0209,-0.0207,-0.0195,-0.0189,-0.0187,-0.0162,-0.0136,-0.0122,-0.0114,-0.0124,-0.0135,-0.0138,-0.0144,-0.0132,-0.0181,-0.018,-0.018,-0.0133,-0.0128,-0.0124,0,0,0,0,0,0,-0.0221,-0.0214,-0.0202,-0.0194,-0.0181,-0.0179,-0.0164,-0.0145,-0.0129,-0.0111,-0.0124,-0.0125,-0.0114,-0.0134,-0.0135,-0.014,-0.0159,-0.0159,-0.0122,-0.0117,-0.0113,-0.0099,-0.0153,0,0,0,0,0,-0.0218,-0.0213,-0.0203,-0.0194,-0.0184,-0.0168,-0.0157,-0.0136,-0.0127,-0.0114,-0.011,-0.0112,-0.0126,-0.0125,-0.0139,-0.0147,-0.0156,-0.0142,-0.0138,-0.0135,-0.0128,-0.0137,-0.0133,-0.0177,-0.0177,-0.0177,0,0,-0.0217,-0.021,-0.0207,-0.0193,-0.018,-0.0164,-0.0155,-0.0128,-0.0107,-0.0123,-0.0086,-0.0097,-0.0124,-0.0125,-0.0123,-0.0133,-0.0124,-0.0134,-0.0131,-0.0125,-0.0135,-0.0131,-0.0127,-0.0176,-0.0176,-0.0176,0,0,-0.0217,-0.02,-0.0195,-0.018,-0.0152,-0.0143,-0.0125,-0.0102,-0.0079,-0.0059,-0.0064,-0.0062,-0.0074,-0.0091,-0.0105,-0.0091,-0.0103,-0.0091,-0.0061,-0.0069,-0.0066,-0.0062,-0.0053,-0.005,-0.009,-0.009,-0.009,0,-0.0209,-0.0197,-0.0191,-0.0174,-0.0152,-0.0127,-0.0102,-0.0089,-0.0062,-0.0046,-0.0035,-0.0042,-0.0061,-0.0075,-0.0065,-0.0082,-0.0079,-0.0075,-0.0063,-0.006,-0.0058,-0.005,-0.0047,-0.0087,-0.0087,-0.0088,-0.0088,0,-0.0209,-0.0182,-0.0174,-0.0144,-0.0124,-0.0096,-0.0074,-0.0043,-0.0009,0.0002,0.0021,-0.0003,-0.0004,-0.0015,-0.0035,-0.0031,-0.0031,-0.0056,-0.0072,-0.005,-0.0043,-0.0041,-0.0084,-0.0084,-0.0085,-0.0086,0,0,-0.0224,-0.0181,-0.0171,-0.0138,-0.0095,-0.0076,-0.0041,-0.0008,0.0027,0.0045,0.0076,0.0051,0.0055,0.0039,0.0014,0.0005,0.0024,-0.0009,-0.001,0.0006,0.0028,-0.0027,-0.003,0.0007,0.0008,0.0008,0.0031,0,-0.0212,-0.0171,-0.0154,-0.0097,-0.0065,-0.0028,0.0,0.0034,0.0064,0.0097,0.0081,0.0096,0.0068,0.0077,0.0063,0.0031,0.0032,0.0022,-0.0001,-0.0002,-0.0049,-0.003,0.0009,0.0033,0.0034,0.0034,0.0034,0,-0.021,-0.0176,-0.012,-0.0052,-0.0034,0.0003,0.0074,0.0099,0.0132,0.0153,0.0165,0.0161,0.0151,0.0127,0.0097,0.0096,0.0075,0.0049,0.0049,-0.0019,-0.0053,0.0002,0.0039,0.0038,0.0038,0.0038,0.0037,0,-0.0211,-0.0147,-0.0093,-0.0068,0.0001,0.0044,0.0082,0.0127,0.0153,0.0195,0.0219,0.0211,0.0213,0.0183,0.0118,0.0127,0.0076,0.0078,0.0011,0.0008,0.0029,0.0025,0.0066,0.0066,0.0066,0.0066,0.0066,0,-0.0198,-0.0159,-0.0078,-0.0046,0.0027,0.0067,0.0135,0.017,0.021,0.0225,0.0251,0.0224,0.0229,0.0189,0.0141,0.0069,0.0092,0.0025,0.0007,0.0051,0.0049,0.0032,0.0028,0.0067,0.0067,0.0066,0.0066,0,-0.0212,-0.0161,-0.0096,-0.0004,0.0031,0.0085,0.0163,0.0193,0.0241,0.0263,0.0278,0.0257,0.0193,0.0173,0.0112,0.0093,0.0028,-0.0008,0.0048,0.0031,-0.0022,-0.0024,-0.0027,-0.0029,-0.003,-0.0031,-0.0033,0,-0.022,-0.0184,-0.0071,-0.0023,0.0029,0.0107,0.0148,0.0206,0.022,0.0231,0.0217,0.0192,0.0163,0.0046,0.0008,-0.004,-0.0064,-0.0037,-0.0019,-0.0016,-0.0033,-0.0032,-0.0032,-0.0035,-0.0035,-0.0036,-0.0036,0,-0.0239,-0.019,-0.0133,-0.0031,0.004,0.0093,0.015,0.0147,0.0185,0.0245,0.0164,0.0129,0.0053,-0.0018,-0.0042,-0.0102,-0.0013,-0.0052,-0.0048,-0.0031,-0.0026,-0.0041,-0.0039,-0.0042,-0.0041,-0.004,-0.004,0,-0.0254,-0.0219,-0.0134,-0.0044,0.0031,0.0051,0.008,0.0086,0.0105,0.0135,0.007,0.0015,0.0012,-0.006,-0.0133,-0.0141,-0.0126,-0.0079,-0.0073,-0.0067,-0.0097,-0.0098,-0.0145,0,0,0,0,0,-0.0262,-0.0224,-0.0157,-0.0065,-0.0002,0.0041,0.0069,0.0082,0.011,0.0061,0.0084,-0.0003,-0.0071,-0.0143,-0.0163,-0.0172,-0.0139,-0.0192,-0.0083,-0.0071,-0.0065,-0.0101,0,0,0,0,0,0,-0.0263,-0.021,-0.017,-0.0104,-0.0055,-0.0004,0.0001,0.0011,-0.0022,0.001,-0.0059,0.0023,-0.0087,-0.0057,-0.0158,-0.0163,-0.0088,-0.0201,-0.0201,-0.0075,-0.0069,-0.0064,-0.0099,0,0,0,0,0]},{"header":{"parameterUnit":"m.s-1","parameterCategory":2,"la1":30.2991,"la2":30.254,"lo1":-89.0895,"lo2":-89.0444,"dy":0.0017,"dx":0.0017,"nx":28,"ny":28,"refTime":"2024-11-27T09:00:00:Z","depth":"4","parameterNumber":3,"parameterNumberName":"V-component_of_CURRENTS"},"data":[0,0,0,0,0,0,0,0,0,0,0,0,0,0,0,0,0,0,0,0,0,0,0,0,0,0,0,0,0,0,0,0,0,0,0,0,0,0,0,0,0,0,0,0,0,0,0,0,0,0,0,0,0,0,0,0,0,0,0.0319,0.0319,0,0.0319,0.0319,0.0319,0.0266,0.0265,0.0264,0.0263,0.026,0.0261,0.0262,0,0,0,0,0,0,0,0,0,0,0,0,0,0.0286,0.0286,0.0318,0.0319,0.0319,0.0319,0.0319,0.0319,0.0267,0.0265,0.0264,0.0262,0.026,0.0261,0.0262,0,0,0,0,0,0,0,0,0,0,0,0,0,0.0292,0.0286,0.0318,0.0295,0.0293,0.0319,0.0319,0.0319,0.0267,0.0265,0.0263,0.0262,0.0259,0.0261,0.0262,0.0307,0,0,0.0267,0.0268,0,0,0,0,0,0,0,0,0.0292,0.0293,0.0298,0.0296,0.0294,0.0293,0.0307,0.0316,0.0267,0.0274,0.0263,0.0261,0.0274,0.0274,0.0275,0.0307,0.0307,0.0267,0.0268,0.0269,0.0269,0,0,0,0,0,0,0,0.0292,0.0293,0.0316,0.0298,0.0296,0.0289,0.0288,0.0308,0.0282,0.0273,0.027,0.0275,0.0272,0.0273,0.0274,0.0307,0.0267,0.0268,0.0269,0.027,0.0273,0.0272,0,0,0,0,0,0,0.0298,0.0293,0.0316,0.0317,0.0291,0.0291,0.0289,0.0293,0.0282,0.0279,0.0276,0.0272,0.0272,0.0272,0.0274,0.0232,0.0269,0.027,0.0271,0.0274,0.0273,0.0272,0,0,0,0,0,0,0.0297,0.03,0.0316,0.0306,0.0308,0.0294,0.0298,0.0294,0.0259,0.0284,0.028,0.0242,0.027,0.0272,0.0262,0.0235,0.0271,0.0272,0.0275,0.0274,0.0272,0.0209,0,0,0,0,0,0,0.0296,0.03,0.0295,0.0307,0.0309,0.0313,0.03,0.0296,0.0269,0.0262,0.0255,0.0254,0.0269,0.026,0.0264,0.0238,0.0273,0.0276,0.0274,0.0273,0.0212,0.0206,0.02,0,0,0,0,0,0.0295,0.0301,0.0295,0.0298,0.0307,0.0313,0.0312,0.0295,0.0268,0.0255,0.0244,0.0253,0.0252,0.0261,0.0266,0.0239,0.0277,0.0275,0.0273,0.0215,0.0207,0.02,0,0,0,0,0,0,0.0278,0.0297,0.029,0.0298,0.0296,0.0304,0.0294,0.0278,0.0259,0.024,0.0251,0.0251,0.023,0.0248,0.0257,0.0235,0.0263,0.0262,0.0217,0.021,0.0204,0.0203,0.0275,0,0,0,0,0,0.0277,0.0284,0.0295,0.0296,0.0294,0.0286,0.0281,0.0264,0.0257,0.0244,0.0235,0.023,0.0235,0.023,0.0238,0.0235,0.0253,0.0218,0.0212,0.0207,0.0209,0.0216,0.0211,0.0266,0.0266,0.0266,0,0,0.0273,0.0282,0.0285,0.0293,0.0287,0.029,0.0276,0.0257,0.0245,0.0251,0.0217,0.021,0.0229,0.0217,0.0209,0.0223,0.0199,0.0204,0.02,0.0205,0.0213,0.0208,0.0203,0.0264,0.0265,0.0265,0,0,0.0279,0.027,0.0283,0.0279,0.0271,0.0268,0.0254,0.0238,0.0212,0.0191,0.0187,0.0163,0.0165,0.0171,0.0179,0.0149,0.0168,0.0139,0.0108,0.0114,0.011,0.0106,0.0114,0.0112,0.0136,0.0135,0.0135,0,0.0269,0.0287,0.0284,0.0291,0.0283,0.0255,0.0252,0.0236,0.0211,0.0191,0.0167,0.0146,0.0148,0.015,0.0125,0.0136,0.014,0.0132,0.0106,0.0103,0.01,0.011,0.0109,0.0132,0.0133,0.0133,0.0133,0,0.0295,0.0294,0.0295,0.0297,0.0285,0.0273,0.0255,0.022,0.0174,0.0158,0.0118,0.0112,0.0099,0.0087,0.0092,0.0072,0.0081,0.0097,0.0123,0.0091,0.0103,0.0103,0.0127,0.0129,0.013,0.013,0,0,0.0313,0.0315,0.0314,0.0302,0.028,0.027,0.0242,0.0217,0.0189,0.014,0.011,0.0084,0.0054,0.006,0.0056,0.0047,0.0018,0.0049,0.0051,0.0056,0.0025,0.0023,0.0023,0.0022,0.0021,0.0021,0.0038,0,0.033,0.0345,0.0338,0.0322,0.0317,0.0274,0.0254,0.0216,0.0175,0.0137,0.0106,0.0081,0.0056,0.0033,0.0017,0.0022,0.0014,0.0012,0.0058,0.0059,0.0061,0.0022,0.002,0.0038,0.0038,0.0038,0.0038,0,0.0363,0.0362,0.0361,0.0321,0.0313,0.0289,0.023,0.0209,0.0163,0.0129,0.0088,0.0067,0.0036,0.0022,0.0007,0.0001,0.0001,0.0006,0.0008,0.0031,0.0056,0.008,0.0037,0.0037,0.0037,0.0037,0.0037,0,0.0381,0.0373,0.0365,0.0354,0.0314,0.0278,0.0242,0.0193,0.0177,0.012,0.0106,0.0062,0.0045,0.0027,0.0014,0.0003,0.0014,0.0014,0.0021,0.0022,0.0048,0.0052,0.0013,0.0013,0.0013,0.0013,0.0013,0,0.0388,0.0385,0.0362,0.0352,0.0311,0.0275,0.0229,0.0187,0.0158,0.0144,0.0098,0.0076,0.0041,0.0039,0.0021,0.0016,0.0023,0.0008,0.0021,0.002,0.0021,0.0048,0.0051,0.0014,0.0014,0.0014,0.0014,0,0.0384,0.039,0.038,0.0338,0.0317,0.0275,0.0224,0.0203,0.0174,0.0158,0.0144,0.0096,0.0061,0.0059,0.0042,0.0037,0.0033,0.004,0.0043,0.0058,0.0032,0.0032,0.0029,0.0029,0.0029,0.0029,0.0029,0,0.0371,0.0372,0.0363,0.0345,0.031,0.0259,0.023,0.0199,0.0191,0.0162,0.0159,0.0124,0.009,0.0048,0.0046,0.0038,0.0039,0.0053,0.0021,0.0018,0.0032,0.0032,0.0032,0.0029,0.0029,0.0029,0.0029,0,0.0326,0.0345,0.033,0.0315,0.0281,0.0256,0.0213,0.0201,0.0177,0.0207,0.0128,0.0088,0.0063,0.0011,0.0028,0.002,0.0043,0.0052,0.0052,0.0021,0.0018,0.0032,0.0032,0.0029,0.0029,0.0029,0.0029,0,0.0285,0.0273,0.0277,0.0249,0.0245,0.0209,0.019,0.0151,0.0137,0.0123,0.0097,0.0046,0.0037,0.0005,0.0011,0.0011,-0.0004,-0.0006,-0.0004,-0.0003,-0.0018,-0.0027,-0.0027,0,0,0,0,0,0.0226,0.0213,0.0199,0.017,0.0186,0.0184,0.0168,0.0161,0.0166,0.0105,0.0094,0.0053,0.0007,-0.0022,-0.0031,0.0022,0.0019,0.0016,0.0022,0.0029,0.0029,0.0016,0,0,0,0,0,0,0.0178,0.0174,0.0178,0.0127,0.0111,0.0107,0.0096,0.0096,0.0054,0.006,0.0015,0.0066,0.001,0.0007,-0.0031,-0.0024,-0.002,0.0022,0.0022,0.0029,0.0029,0.0029,0.0016,0,0,0,0,0]}]]